Location: Spring Creek
(38.2870°N, 100.2160°W)
Time: 08:46:40
(UTC+00:00)

Cosmos 2278 Rocket - Pass Details

Date: 08 May 2021
Orbit: 841 x 845 km, 71.0° (Epoch: 21 June)

Event Time Altitude Azimuth Distance (km) Brightness Sun altitude
Exits shadow 05:49:56 19° 275° (W) 1,922 4.2 -33.4°
Maximum altitude 05:51:59 23° 305° (NW) 1,740 4.2 -33.5°
Drops below altitude 10° 05:56:22 10° 356° (N) 2,465 5.4 -33.7°
Sets 05:59:22 0° 11° (N) 3,403 6.3 -33.8°
